EW4415 Weather Reports


Display with metric or nautical units.
time (UTC)temp
F
wind
direction
speed
MPH
gust
MPH
rain 1hr
in
rain 24hr
in
rain mn
in
humidity
%
barometer
mb
20210922160103 42 342 0.0 0.0 0.00 0.01 0.01 88 1020.1
20210922154545 43 342 0.0 0.0 0.00 0.01 0.01 88 1020.1
20210922153100 45 342 0.0 0.0 0.00 0.01 0.01 86 1020.1
20210922151558 46 342 0.0 0.0 0.00 0.01 0.01 86 1020.3
20210922150044 47 342 0.0 0.0 0.00 0.01 0.01 85 1020.4
20210922144547 47 342 0.0 0.0 0.00 0.01 0.01 84 1020.6
20210922143041 49 326 0.0 0.0 0.00 0.01 0.01 83 1020.7
20210922141614 49 272 0.0 0.0 0.00 0.01 0.01 80 1020.9
20210922140049 49 41 0.0 0.0 0.00 0.01 0.01 79 1021.0
20210922134538 49 41 0.0 0.0 0.00 0.01 0.01 76 1021.1
20210922133056 50 41 0.0 0.0 0.00 0.01 0.01 75 1021.3
20210922131530 50 40 0.0 2.0 0.00 0.01 0.01 73 1021.4
20210922130059 50 229 0.0 2.0 0.00 0.01 0.01 73 1021.5
20210922124526 50 295 0.0 0.0 0.00 0.01 0.01 71 1021.5
20210922123052 50 294 0.0 0.0 0.00 0.01 0.01 74 1021.7
20210922121530 50 315 0.0 1.0 0.00 0.01 0.01 74 1021.9
20210922120031 50 251 0.0 2.0 0.00 0.01 0.01 72 1021.9
20210922114523 50 49 0.0 1.0 0.00 0.01 0.01 75 1022.1
20210922113012 50 44 0.0 1.0 0.00 0.01 0.01 74 1022.2
20210922111535 50 34 0.0 1.0 0.00 0.01 0.01 75 1022.4
20210922110015 49 74 0.0 0.0 0.00 0.01 0.01 76 1022.4
20210922104508 49 219 0.0 1.0 0.00 0.01 0.01 76 1022.6
20210922103007 49 109 0.0 1.0 0.00 0.01 0.01 76 1022.6
20210922101505 49 107 0.0 2.0 0.00 0.01 0.01 76 1022.7
20210922100009 49 37 0.0 2.0 0.00 0.01 0.01 79 1022.9
20210922094503 49 149 0.0 3.0 0.00 0.01 0.01 78 1022.9
20210922093001 48 18 0.0 1.0 0.00 0.01 0.01 80 1023.0
20210922091740 48 35 0.0 2.0 0.00 0.01 0.01 80 1023.2
20210922090116 47 125 0.0 2.0 0.00 0.01 0.01 82 1023.3
20210922084625 47 298 0.0 1.0 0.00 0.01 0.01 82 1023.3
20210922083122 47 58 0.0 4.0 0.00 0.01 0.01 84 1023.4
20210922081737 46 29 0.0 5.0 0.00 0.01 0.01 85 1023.4
20210922080139 45 129 0.0 3.0 0.00 0.01 0.01 88 1023.5
20210922074553 43 22 0.0 5.0 0.00 0.01 0.01 92 1023.5
20210922073053 42 66 0.0 1.0 0.00 0.01 0.01 96 1023.5
20210922071620 40 33 0.0 2.0 0.01 0.01 0.01 96 1023.5
20210922070120 39 59 0.0 4.0 0.01 0.01 0.01 96 1023.5
20210922064639 38 32 0.0 4.0 0.01 0.01 0.01 96 1023.4
20210922063031 37 9 0.0 4.0 0.01 0.01 0.01 96 1023.4
20210922061526 36 49 0.0 5.0 0.00 0.00 0.00 96 1023.5
20210922060027 35 38 0.0 2.0 0.00 0.00 0.00 96 1023.5
20210922054529 33 32 0.0 2.0 0.00 0.00 0.00 96 1023.5
20210922053013 32 28 0.0 5.0 0.00 0.00 0.00 96 1023.3
20210922051513 31 42 0.0 2.0 0.00 0.00 0.00 96 1023.2
20210922050018 30 29 0.0 3.0 0.00 0.00 0.00 96 1023.3
20210922044511 30 263 0.0 1.0 0.00 0.00 0.00 95 1023.2
20210922043008 30 252 0.0 0.0 0.00 0.00 0.00 95 1023.2
20210922041507 30 47 0.0 0.0 0.00 0.00 0.00 95 1023.2
20210922040009 30 47 0.0 0.0 0.00 0.00 0.00 95 1023.2
20210922034507 30 47 0.0 0.0 0.00 0.00 0.00 95 1023.2
20210922033017 30 47 0.0 0.0 0.00 0.00 0.00 95 1023.2
20210922031514 30 47 0.0 0.0 0.00 0.00 0.00 95 1023.1
20210922030005 30 47 0.0 0.0 0.00 0.00 0.00 95 1023.2
20210922024543 30 47 0.0 0.0 0.00 0.00 0.00 95 1023.3
20210922023007 31 47 0.0 0.0 0.00 0.00 0.00 95 1023.3
20210922021505 31 47 0.0 0.0 0.00 0.00 0.00 95 1023.4
20210922020116 31 47 0.0 0.0 0.00 0.00 0.00 95 1023.3
20210922020000 31 47 0.0 0.0 0.00 0.00 0.00 95 1023.2
20210922014713 31 47 0.0 0.0 0.00 0.00 0.00 95 1023.2
20210922013152 31 47 0.0 0.0 0.00 0.00 0.00 95 1023.1
20210922011651 31 47 0.0 0.0 0.00 0.00 0.00 95 1023.2
20210922010334 31 47 0.0 0.0 0.00 0.00 0.00 95 1023.1
20210922004712 31 47 0.0 0.0 0.00 0.00 0.00 95 1023.0
20210922003255 30 42 0.0 0.0 0.00 0.00 0.00 95 1023.1
20210922001618 30 43 0.0 0.0 0.00 0.00 0.00 95 1023.1
20210922000154 30 43 0.0 0.0 0.00 0.00 0.00 95 1023.0
20210921234629 30 43 0.0 0.0 0.00 0.00 0.00 95 1023.1
20210921233217 30 43 0.0 0.0 0.00 0.00 0.00 94 1023.1
20210921231711 31 43 0.0 0.0 0.00 0.00 0.00 94 1023.0
20210921230144 31 43 0.0 0.0 0.00 0.00 0.00 95 1022.9
20210921224638 31 43 0.0 0.0 0.00 0.00 0.00 95 1022.8
20210921223125 31 43 0.0 0.0 0.00 0.00 0.00 94 1022.7
20210921221634 31 43 0.0 0.0 0.00 0.00 0.00 94 1022.7
20210921220207 31 43 0.0 0.0 0.00 0.00 0.00 94 1022.8
20210921214622 32 43 0.0 0.0 0.00 0.00 0.00 93 1022.9
20210921213112 32 43 0.0 0.0 0.00 0.00 0.00 93 1022.9
20210921211601 33 43 0.0 0.0 0.00 0.00 0.00 93 1022.8
20210921210155 34 43 0.0 0.0 0.00 0.00 0.00 93 1022.9
20210921204622 34 43 0.0 0.0 0.00 0.00 0.00 93 1022.9
20210921203151 35 43 0.0 0.0 0.00 0.00 0.00 93 1023.0
20210921201545 36 43 0.0 0.0 0.00 0.00 0.00 93 1022.8
20210921200037 36 42 0.0 0.0 0.00 0.00 0.00 93 1022.7
20210921194558 36 43 0.0 0.0 0.00 0.00 0.00 93 1022.8
20210921193045 37 43 0.0 0.0 0.00 0.00 0.00 93 1022.9
20210921191550 37 43 0.0 0.0 0.00 0.00 0.00 93 1022.9
20210921190042 37 43 0.0 0.0 0.00 0.00 0.00 92 1022.8
20210921184544 38 43 0.0 0.0 0.00 0.00 0.00 92 1022.8
20210921183019 39 43 0.0 0.0 0.00 0.00 0.00 92 1022.8
20210921181530 39 43 0.0 0.0 0.00 0.00 0.00 92 1022.7
20210921180059 39 43 0.0 0.0 0.00 0.00 0.00 92 1022.7
20210921174515 39 43 0.0 0.0 0.00 0.00 0.00 92 1022.7
20210921173016 39 43 0.0 0.0 0.00 0.00 0.00 91 1022.7
20210921171512 40 43 0.0 0.0 0.00 0.00 0.00 90 1022.6
20210921170011 40 43 0.0 0.0 0.00 0.00 0.00 89 1022.7
20210921164523 41 43 0.0 0.0 0.00 0.00 0.00 87 1022.6
20210921163010 43 43 0.0 0.0 0.00 0.00 0.00 85 1022.4
20210921161512 44 43 0.0 0.0 0.00 0.00 0.00 83 1022.3